KOREASAT 116 (45920 NORAD) Tracking and Keplerian Element Data

This shows tracking and keplerian element data for the satellite.

Feedback or suggestion? Click here.




ElementValue
Catalog45920
NameKOREASAT 116
Epoch Orbit135
Epoch Day336.06021719
Epoch Year2020
RAAN291.436
Inclination0.0284
Eccentricity0.0001325
Argument of Perigee317.5429
Mean Anonmoly319.3135
Mean Motion1.0026922
Decay Rate-3.41E-06
L11 45920U 20048A 20336.06021719 -.00000341 00000-0 00000+0 0 9992
L22 45920 0.0284 291.4360 0001325 317.5429 319.3135 1.00269220 1359

Live tracking and technical data element details for KOREASAT 116 (NORAD 45920). KOREASAT 116 can be tracked NOW for your location showing map with azimuth and elevation plus other details from your city location.

Track the satellite on the map from your city or location and see movement details for azimuth, elevation, latitude, longitude, range, height, and movement on the map or in text.







IsCatalogInMostPopularTable: catalog: 45920, numindb: 24
Update: records affected: 1



GetName: 45920 KOREASAT 116

Hit Count: updated at: Tue, 01 Dec 2020 20:35:51 GMT